EDT,Max TemperatureF,Mean TemperatureF,Min TemperatureF,Max Dew PointF,MeanDew PointF,Min DewpointF,Max Humidity, Mean Humidity, Min Humidity, Max Sea Level PressureIn, Mean Sea Level PressureIn, Min Sea Level PressureIn, Max VisibilityMiles, Mean VisibilityMiles, Min VisibilityMiles, Max Wind SpeedMPH, Mean Wind SpeedMPH, Max Gust SpeedMPH,PrecipitationIn, CloudCover, Events, WindDirDegrees
2013-5-1,82,67,51,57,54,50,89,66,42,30.18,30.14,30.04,10,10,10,16,5,21,0.00,0,,139
2013-5-2,77,67,56,56,54,52,86,66,46,30.21,30.15,30.10,10,10,10,17,7,22,0.00,2,,123
2013-5-3,77,68,59,58,53,44,80,60,39,30.08,30.02,29.96,10,10,10,22,11,26,0.00,5,,130
2013-5-4,73,65,57,47,44,39,62,47,31,30.04,30.01,29.96,10,10,8,22,13,26,0.00,6,,113
2013-5-5,71,60,48,49,45,40,80,61,42,30.04,30.00,29.97,10,10,10,18,9,23,T,6,Rain,80
2013-5-6,71,62,52,55,48,41,71,60,48,30.02,29.98,29.95,10,10,10,20,7,24,T,7,Rain,78
2013-5-7,75,65,54,55,52,47,77,63,49,30.03,30.00,29.96,10,10,10,16,7,20,0.00,6,,57
2013-5-8,78,64,50,54,52,49,93,66,38,30.03,29.99,29.96,10,10,7,15,4,17,T,5,Rain,335
2013-5-9,81,66,51,58,53,48,93,64,35,30.00,29.96,29.91,10,10,9,25,6,32,0.10,6,Rain,241
2013-5-10,70,60,49,61,56,46,97,80,63,29.90,29.84,29.79,10,9,2,20,12,26,0.13,7,Rain,258
2013-5-11,58,48,38,49,44,34,93,80,66,30.01,29.90,29.82,10,8,2,30,10,43,0.09,7,Rain,287
2013-5-12,52,44,36,35,31,26,92,65,38,30.15,30.07,30.01,10,10,10,22,10,28,0.00,3,,294
2013-5-13,61,50,38,37,30,24,92,59,25,30.20,30.15,30.12,10,10,10,17,5,23,0.00,5,,324
2013-5-14,85,67,48,59,45,28,61,48,34,30.11,29.90,29.74,10,10,10,26,14,37,T,5,,205
2013-5-15,87,76,64,59,54,48,70,48,26,29.83,29.77,29.70,10,10,10,28,15,35,0.01,6,Rain-Thunderstorm,274
2013-5-16,83,69,54,57,48,39,86,54,22,29.97,29.90,29.82,10,10,10,12,3,16,0.00,5,,329
2013-5-17,83,68,52,60,49,43,77,55,33,30.09,30.04,29.98,10,10,10,17,9,22,T,6,Rain,79
2013-5-18,81,68,55,59,50,39,66,56,45,30.11,30.05,30.00,10,10,9,13,7,18,0.00,6,,78
2013-5-19,87,72,56,63,56,48,77,60,42,30.01,29.95,29.87,10,10,10,15,6,20,0.00,3,,117
2013-5-20,88,78,67,70,65,62,93,70,46,29.93,29.88,29.82,10,9,6,25,12,33,0.00,4,,190
2013-5-21,88,77,66,66,61,57,87,62,36,29.84,29.79,29.73,10,10,10,28,15,36,T,6,,214
2013-5-22,80,71,62,65,61,58,93,74,54,29.77,29.74,29.67,10,10,6,30,13,35,0.05,7,Rain,213
2013-5-23,64,57,50,60,54,45,97,84,71,30.16,29.91,29.75,10,9,1,21,12,28,0.15,7,Rain,294
2013-5-24,65,54,42,45,39,34,92,62,31,30.36,30.30,30.18,10,10,10,18,8,24,0.00,2,,340
2013-5-25,69,56,43,43,40,34,92,61,29,30.40,30.33,30.26,10,10,9,10,3,13,0.00,5,,353
2013-5-26,72,57,42,40,37,35,70,49,28,30.34,30.27,30.20,10,10,10,14,7,18,T,5,Rain,100
2013-5-27,63,57,50,62,53,34,100,68,36,30.21,30.05,29.94,10,6,1,20,10,26,1.72,8,Rain-Thunderstorm,92
2013-5-28,80,71,62,69,65,62,100,84,67,29.95,29.91,29.86,10,8,2,29,12,37,0.06,7,Rain,200
2013-5-29,85,77,68,67,64,60,84,68,51,30.01,29.97,29.91,10,10,10,23,13,29,0.00,6,,216
2013-5-30,88,78,67,68,65,61,87,69,51,30.07,30.01,29.95,10,10,10,29,13,37,T,6,Rain-Thunderstorm,188
2013-5-31,75,70,65,70,66,61,90,82,73,30.00,29.95,29.88,10,9,1,22,13,29,0.63,7,Rain-Thunderstorm,197